Tracking 26492 objects as of 8-Dec-2022
HD Live streaming from Space Station
objects crossing your sky now

STARLINK-5009

Track STARLINK-5009 now!
10-day predictions
STARLINK-5009 is classified as:


NORAD ID: 53928
Int'l Code: 2022-119AU
Perigee: 353.9 km
Apogee: 359.6 km
Inclination: 53.2 °
Period: 91.5 minutes
Semi major axis: 6727 km
RCS: Unknown
Launch date: September 24, 2022
Source: United States (US)
Launch site: AIR FORCE EASTERN TEST RANGE (AFETR)
aabbcc
Your satellite tracking list
Your tracking list is empty




NASA's NSSDC Master Catalog

Two Line Element Set (TLE):
1 53928U 22119AU  22342.00159942 -.00021571  00000-0 -14923-3 0  9995
2 53928  53.2141 246.5742 0004297  12.5476 347.5651 15.73248859 12086
Source of the keplerian elements: AFSPC